This is the latest recevied weather packets stored in our database for station/object EA3IK-1. If no packets are shown the sender has not sent any weather packets the latest 10 day(s).
| Time | Temp. | Humidity | Pressure | Rain* | Wind** | Luminosity | Snow |
|---|---|---|---|---|---|---|---|
| 1777834744 | 16.11° C | 51% | 1013.8 hPa | 0 mm | - | - | - |
| 1777833843 | 16.11° C | 53% | 1013.9 hPa | 0 mm | - | - | - |
| 1777832942 | 16.11° C | 56% | 1013.9 hPa | 0 mm | - | - | - |
| 1777832041 | 16.11° C | 59% | 1013.9 hPa | 0 mm | - | - | - |
| 1777831141 | 16.11° C | 60% | 1013.9 hPa | 0 mm | - | - | - |
| 1777830240 | 16.67° C | 62% | 1013.7 hPa | 0 mm | - | - | - |
| 1777829339 | 16.67° C | 64% | 1013.4 hPa | 0 mm | - | - | - |
| 1777828438 | 16.67° C | 63% | 1013.5 hPa | 0 mm | - | - | - |
| 1777827537 | 16.11° C | 59% | 1013.5 hPa | 0 mm | - | - | - |
| 1777826636 | 16.11° C | 56% | 1013.5 hPa | 0 mm | - | - | - |
| 1777825736 | 16.67° C | 55% | 1013.4 hPa | 0 mm | - | - | - |
| 1777824835 | 16.67° C | 56% | 1013.4 hPa | 0 mm | - | - | - |
| 1777823934 | 17.22° C | 58% | 1013.4 hPa | 0 mm | - | - | - |
| 1777823033 | 17.78° C | 61% | 1013.4 hPa | 0 mm | - | - | - |
| 1777822132 | 17.78° C | 62% | 1013.4 hPa | 0 mm | - | - | - |
| 1777821231 | 17.78° C | 64% | 1013.4 hPa | 0 mm | - | - | - |
| 1777820330 | 17.78° C | 64% | 1013.4 hPa | 0 mm | - | - | - |
| 1777819430 | 17.78° C | 64% | 1013.5 hPa | 0 mm | - | - | - |
| 1777818529 | 18.33° C | 64% | 1013.8 hPa | 0 mm | - | - | - |
| 1777817628 | 18.33° C | 63% | 1014.3 hPa | 0 mm | - | - | - |
| 1777816727 | 18.33° C | 63% | 1014.5 hPa | 0 mm | - | - | - |
| 1777815826 | 18.33° C | 63% | 1014.8 hPa | 0 mm | - | - | - |
| 1777814925 | 17.78° C | 64% | 1015.1 hPa | 0 mm | - | - | - |
| 1777814025 | 17.78° C | 66% | 1015.3 hPa | 0 mm | - | - | - |
| 1777813124 | 17.78° C | 65% | 1015.4 hPa | 0 mm | - | - | - |
* Rain latest hour (hover to see other rain measurements)
** Current wind speed in m/s (hover to see current wind gust speed)